Weather History for Albany, GA

Change the Weather History Date:

Tuesday, January 8, 2013

  Actual Average Record
Temperature  
Mean Temperature 58 °F 49 °F  
Max Temperature 69 °F 60 °F 79 °F (1946)
Min Temperature 46 °F 38 °F 12 °F (1970)
Degree Days  
Heating Degree Days 8 16  
Month to date heating degree days 128  
Since 1 July heating degree days 841  
Cooling Degree Days 0 0  
Month to date cooling degree days 0  
Year to date cooling degree days 0  
Growing Degree Days 8 (Base 50)    
Moisture  
Dew Point 44 °F    
Average Humidity 65    
Maximum Humidity 75    
Minimum Humidity 53    
Precipitation  
Precipitation 0.00 in 0.13 in 0.45 in (2007)
Month to date precipitation 1.09  
Year to date precipitation 1.09  
Sea Level Pressure  
Sea Level Pressure 30.30 in    
Wind  
Wind Speed 7 mph (NE)    
Max Wind Speed 10 mph    
Max Gust Speed -    
Visibility 10 miles    
Events      
T = Trace of Precipitation, MM = Missing Value Source: NWS Daily Summary

Daily Weather History Graph

Daily Weather History Graph

Search for Another Location

Airport:

Trip Planner

Search our weather history database for the weather conditions in past years. The results will help you decide how hot, cold, wet, or windy it might be!

Date:

Astronomy

Jan. 08, 2013 Rise Set
Actual Time 7:37 AM EST 5:50 PM EST
Civil Twilight 7:10 AM EST 6:16 PM EST
Nautical Twilight 6:40 AM EST 6:46 PM EST
Astronomical Twilight 6:11 AM EST 7:16 PM EST
Moon 4:10 AM EST (1/8) 2:51 PM EST (1/8)
Length of Visible Light 11h 06m
Length of Day
10h 13m
Waning Crescent, 14% of the Moon is Illuminated
Jan 8
Waning Crescent
Jan 11
New
Jan 18
First Quarter
Jan 26
Full
Feb 3
Last Quarter

Hourly Weather History & Observations

Time (EST) Temp. Windchill Dew Point Humidity Pressure Visibility Wind Dir Wind Speed Gust Speed Precip Events Conditions
12:53 AM 48.0 °F - 37.0 °F 66% 30.30 in 10.0 mi ENE 8.1 mph - N/A   Overcast
1:53 AM 46.0 °F 43.1 °F 36.0 °F 68% 30.28 in 10.0 mi ENE 5.8 mph - N/A   Clear
2:53 AM 46.0 °F 43.1 °F 37.0 °F 71% 30.29 in 10.0 mi ENE 5.8 mph - N/A   Scattered Clouds
3:53 AM 46.0 °F 42.5 °F 37.0 °F 71% 30.28 in 10.0 mi ENE 6.9 mph - N/A   Scattered Clouds
4:53 AM 46.9 °F - 36.0 °F 66% 30.27 in 10.0 mi ENE 5.8 mph - N/A   Overcast
5:53 AM 46.9 °F - 36.0 °F 66% 30.29 in 10.0 mi NE 5.8 mph - N/A   Overcast
6:53 AM 48.0 °F - 37.0 °F 66% 30.31 in 10.0 mi NE 4.6 mph - N/A   Overcast
7:53 AM 48.0 °F - 37.9 °F 68% 30.32 in 10.0 mi NE 4.6 mph - N/A   Overcast
8:53 AM 48.9 °F - 37.9 °F 66% 30.35 in 10.0 mi ENE 8.1 mph - N/A   Overcast
9:53 AM 52.0 °F - 39.0 °F 61% 30.37 in 10.0 mi ENE 9.2 mph - N/A   Mostly Cloudy
10:53 AM 54.0 °F - 41.0 °F 62% 30.36 in 10.0 mi ENE 10.4 mph - N/A   Overcast
11:53 AM 61.0 °F - 44.1 °F 54% 30.33 in 10.0 mi NE 5.8 mph - N/A   Partly Cloudy
12:53 PM 64.0 °F - 46.9 °F 54% 30.30 in 10.0 mi ENE 5.8 mph - N/A   Clear
1:53 PM 66.9 °F - 50.0 °F 54% 30.25 in 10.0 mi NE 9.2 mph - N/A   Clear
2:53 PM 69.1 °F - 51.1 °F 53% 30.26 in 10.0 mi NE 4.6 mph - N/A   Partly Cloudy
3:53 PM 68.0 °F - 52.0 °F 56% 30.26 in 10.0 mi North 4.6 mph - N/A   Mostly Cloudy
4:53 PM 66.9 °F - 52.0 °F 59% 30.27 in 10.0 mi NE 6.9 mph - N/A   Mostly Cloudy
5:53 PM 64.9 °F - 52.0 °F 63% 30.28 in 10.0 mi NNE 6.9 mph - N/A   Overcast
6:53 PM 63.0 °F - 51.1 °F 65% 30.28 in 10.0 mi NE 8.1 mph - N/A   Mostly Cloudy
7:53 PM 59.0 °F - 51.1 °F 75% 30.29 in 10.0 mi ENE 5.8 mph - N/A   Clear
8:53 PM 60.1 °F - 52.0 °F 75% 30.29 in 10.0 mi NE 6.9 mph - N/A   Partly Cloudy
9:53 PM 60.1 °F - 52.0 °F 75% 30.30 in 10.0 mi ENE 8.1 mph - N/A   Mostly Cloudy
10:53 PM 60.1 °F - 52.0 °F 75% 30.29 in 10.0 mi NE 8.1 mph - N/A   Overcast